QPF
0.01 0.01 0.01 0.01 0.01 0.01 0.01 0.01 0.01 0.01 0.01 0.01 0.01 0.02 0.01 0.02 0.02 0.02 0.02 0.01 0.01 0.01 0.00 0.01 0.01 0.01 0.00 0.00 0.01 0.01 0.03 0.03 0.02 0.02 0.01 0.02 0.02 0.02 0.01 0.01 0.01 0.01 0.01 0.01
0.01 0.01 0.01 0.01 0.01 0.01 0.01 0.01 0.01 0.01 0.01 0.01 0.01 0.01 0.01 0.01 0.01 0.04 0.04 0.03 0.03 0.02 0.01 0.01 0.00 0.01 0.01 0.01 0.01 0.01 0.02 0.02 0.02 0.02 0.02 0.02 0.02 0.02 0.01 0.02 0.02 0.02 0.02 0.02
0.01 0.01 0.01 0.01 0.01 0.01 0.01 0.01 0.01 0.01 0.01 0.02 0.01 0.02 0.01 0.01 0.01 0.01 0.01 0.02 0.02 0.02 0.01 0.01 0.01 0.01 0.01 0.02 0.03 0.02 0.02 0.02 0.02 0.02 0.02 0.03 0.03 0.04 0.03 0.03 0.02 0.02 0.02 0.02
0.00 0.01 0.01 0.01 0.01 0.01 0.01 0.00 0.01 0.01 0.01 0.02 0.02 0.02 0.02 0.03 0.02 0.02 0.02 0.02 0.02 0.02 0.03 0.03 0.02 0.02 0.04 0.05 0.05 0.04 0.03 0.02 0.02 0.03 0.03 0.03 0.04 0.04 0.05 0.04 0.04 0.04 0.04 0.05
0.01 0.01 0.00 0.01 0.01 0.01 0.01 0.01 0.01 0.01 0.01 0.01 0.02 0.04 0.04 0.04 0.04 0.05 0.03 0.02 0.02 0.03 0.03 0.03 0.03 0.04 0.07 0.12 0.12 0.07 0.04 0.04 0.04 0.04 0.04 0.04 0.03 0.03 0.04 0.05 0.09 0.09 0.09 0.09
0.01 0.01 0.01 0.01 0.01 0.01 0.01 0.01 0.01 0.01 0.01 0.01 0.02 0.05 0.05 0.04 0.04 0.09 0.08 0.03 0.03 0.02 0.03 0.02 0.02 0.04 0.09 0.13 0.15 0.12 0.08 0.07 0.07 0.06 0.04 0.05 0.03 0.03 0.03 0.05 0.07 0.09 0.10 0.10
0.01 0.01 0.01 0.01 0.01 0.01 0.01 0.01 0.02 0.02 0.03 0.03 0.01 0.04 0.04 0.03 0.05 0.06 0.03 0.03 0.04 0.03 0.03 0.03 0.03 0.03 0.06 0.08 0.13 0.15 0.17 0.20 0.14 0.08 0.06 0.06 0.03 0.03 0.03 0.04 0.06 0.08 0.09 0.09
0.01 0.01 0.01 0.01 0.01 0.01 0.01 0.00 0.01 0.02 0.04 0.03 0.02 0.04 0.04 0.03 0.02 0.02 0.01 0.03 0.03 0.02 0.02 0.01 0.02 0.03 0.04 0.06 0.07 0.10 0.14 0.16 0.12 0.10 0.11 0.12 0.07 0.04 0.03 0.03 0.04 0.06 0.06 0.06
0.00 0.01 0.01 0.01 0.01 0.01 0.01 0.01 0.01 0.02 0.04 0.04 0.03 0.04 0.03 0.01 0.01 0.01 0.01 0.02 0.02 0.02 0.02 0.02 0.02 0.03 0.05 0.06 0.05 0.06 0.06 0.05 0.05 0.05 0.05 0.07 0.06 0.05 0.05 0.06 0.06 0.05 0.05 0.05
0.00 0.00 0.01 0.01 0.01 0.01 0.01 0.02 0.02 0.03 0.04 0.05 0.04 0.04 0.05 0.02 0.02 0.02 0.03 0.03 0.04 0.05 0.05 0.05 0.04 0.05 0.06 0.05 0.04 0.02 0.01 0.01 0.01 0.01 0.02 0.02 0.03 0.03 0.03 0.08 0.09 0.06 0.06 0.06
0.00 0.00 0.01 0.00 0.01 0.01 0.02 0.02 0.01 0.01 0.02 0.04 0.07 0.07 0.04 0.03 0.03 0.04 0.04 0.06 0.06 0.06 0.07 0.07 0.05 0.05 0.05 0.04 0.03 0.02 0.02 0.02 0.02 0.02 0.02 0.02 0.02 0.02 0.03 0.04 0.05 0.06 0.07 0.07
0.00 0.00 0.02 0.01 0.01 0.01 0.01 0.01 0.02 0.01 0.02 0.03 0.06 0.08 0.05 0.03 0.03 0.04 0.05 0.06 0.06 0.04 0.06 0.06 0.05 0.04 0.05 0.06 0.05 0.04 0.04 0.04 0.04 0.03 0.03 0.03 0.03 0.03 0.05 0.05 0.06 0.08 0.09 0.09
0.00 0.00 0.01 0.01 0.01 0.01 0.01 0.01 0.02 0.02 0.02 0.02 0.05 0.07 0.06 0.03 0.03 0.04 0.04 0.03 0.04 0.03 0.04 0.04 0.06 0.05 0.06 0.07 0.08 0.07 0.06 0.05 0.07 0.07 0.05 0.05 0.04 0.06 0.05 0.04 0.04 0.05 0.05 0.04
0.00 0.00 0.00 0.02 0.02 0.01 0.01 0.01 0.01 0.01 0.01 0.01 0.02 0.03 0.04 0.04 0.04 0.04 0.03 0.03 0.05 0.02 0.02 0.03 0.04 0.04 0.07 0.10 0.10 0.08 0.06 0.05 0.05 0.06 0.09 0.10 0.07 0.05 0.02 0.02 0.03 0.04 0.05 0.03
0.00 0.00 0.00 0.01 0.01 0.01 0.01 0.01 0.01 0.01 0.01 0.01 0.01 0.02 0.02 0.03 0.03 0.03 0.05 0.03 0.01 0.01 0.01 0.01 0.02 0.02 0.02 0.04 0.06 0.06 0.05 0.05 0.03 0.04 0.04 0.03 0.03 0.02 0.02 0.02 0.03 0.03 0.03 0.02
0.00 0.00 0.00 0.00 0.01 0.01 0.01 0.01 0.01 0.01 0.01 0.01 0.02 0.03 0.01 0.01 0.02 0.02 0.05 0.04 0.02 0.01 0.01 0.01 0.01 0.02 0.02 0.01 0.01 0.02 0.02 0.02 0.02 0.01 0.01 0.01 0.01 0.01 0.01 0.01 0.03 0.03 0.02 0.02
0.00 0.00 0.00 0.01 0.00 0.00 0.01 0.01 0.01 0.01 0.01 0.02 0.02 0.01 0.01 0.01 0.01 0.01 0.02 0.03 0.02 0.01 0.01 0.01 0.01 0.01 0.01 0.01 0.01 0.01 0.01 0.01 0.01 0.01 0.01 0.01 0.01 0.01 0.01 0.01 0.01 0.01 0.01 0.02
0.00 0.00 0.00 0.00 0.00 0.01 0.01 0.01 0.01 0.01 0.01 0.01 0.01 0.01 0.01 0.01 0.01 0.01 0.01 0.01 0.01 0.01 0.01 0.01 0.01 0.00 0.00 0.00 0.01 0.01 0.00 0.00 0.01 0.01 0.01 0.01 0.01 0.01 0.01 0.01 0.01 0.01 0.01 0.02
0.00 0.00 0.00 0.00 0.00 0.01 0.01 0.01 0.01 0.00 0.00 0.01 0.01 0.02 0.03 0.03 0.01 0.01 0.01 0.01 0.01 0.01 0.01 0.02 0.02 0.01 0.01 0.00 0.00 0.00 0.00 0.00 0.00 0.00 0.01 0.01 0.01 0.01 0.01 0.01 0.01 0.01 0.01 0.01
0.01 0.00 0.00 0.00 0.00 0.01 0.01 0.00 0.01 0.01 0.01 0.01 0.01 0.02 0.02 0.01 0.01 0.01 0.00 0.00 0.00 0.01 0.01 0.01 0.01 0.01 0.02 0.01 0.01 0.00 0.00 0.00 0.00 0.00 0.01 0.01 0.01 0.01 0.01 0.00 0.01 0.01 0.01 0.01
0.02 0.01 0.01 0.01 0.01 0.02 0.01 0.01 0.01 0.02 0.02 0.01 0.01 0.02 0.02 0.01 0.01 0.00 0.00 0.00 0.00 0.01 0.01 0.01 0.01 0.02 0.02 0.02 0.03 0.03 0.01 0.01 0.01 0.01 0.00 0.00 0.00 0.00 0.01 0.01 0.01 0.01 0.01 0.02
0.01 0.01 0.01 0.02 0.02 0.03 0.02 0.01 0.01 0.02 0.02 0.02 0.02 0.02 0.02 0.02 0.02 0.01 0.01 0.01 0.01 0.01 0.01 0.03 0.02 0.02 0.03 0.02 0.03 0.04 0.03 0.02 0.01 0.01 0.01 0.01 0.01 0.01 0.01 0.01 0.01 0.02 0.03 0.04
0.01 0.02 0.02 0.02 0.02 0.01 0.01 0.02 0.03 0.03 0.03 0.03 0.02 0.02 0.02 0.02 0.02 0.02 0.02 0.02 0.03 0.02 0.02 0.03 0.02 0.02 0.02 0.02 0.03 0.02 0.02 0.02 0.02 0.02 0.01 0.01 0.01 0.01 0.01 0.01 0.02 0.03 0.05 0.05
0.02 0.01 0.02 0.01 0.01 0.02 0.02 0.03 0.03 0.03 0.03 0.03 0.04 0.04 0.03 0.03 0.02 0.01 0.01 0.01 0.02 0.02 0.02 0.02 0.03 0.04 0.04 0.04 0.05 0.05 0.04 0.04 0.03 0.03 0.02 0.02 0.02 0.02 0.02 0.03 0.05 0.06 0.07 0.06
0.01 0.02 0.03 0.03 0.03 0.02 0.02 0.03 0.05 0.05 0.04 0.03 0.03 0.04 0.03 0.03 0.03 0.02 0.02 0.02 0.01 0.01 0.02 0.03 0.04 0.06 0.06 0.05 0.05 0.04 0.05 0.05 0.05 0.05 0.04 0.04 0.04 0.03 0.04 0.06 0.07 0.07 0.06 0.06
0.02 0.01 0.02 0.03 0.04 0.03 0.03 0.02 0.02 0.03 0.02 0.01 0.02 0.04 0.03 0.02 0.02 0.02 0.01 0.01 0.01 0.01 0.01 0.02 0.02 0.02 0.03 0.03 0.03 0.03 0.04 0.04 0.05 0.05 0.05 0.05 0.05 0.05 0.05 0.06 0.06 0.06 0.05 0.05
MSLP
1012.50 1013.44 1014.15 1014.64 1014.96 1015.17 1015.36 1015.57 1015.80 1016.05 1016.28 1016.42 1016.43 1016.29 1016.00 1015.58 1015.08 1014.57 1014.09 1013.68 1013.34 1013.08 1012.87 1012.66 1012.44 1012.18 1011.90 1011.61 1011.35 1011.14 1011.02 1010.99 1011.05 1011.16 1011.29 1011.40 1011.44 1011.40 1011.28 1011.09 1010.86 1010.62 1010.41 1010.26
1013.55 1014.33 1014.85 1015.15 1015.31 1015.42 1015.57 1015.80 1016.11 1016.47 1016.79 1017.01 1017.06 1016.91 1016.56 1016.05 1015.44 1014.82 1014.25 1013.78 1013.42 1013.16 1012.98 1012.81 1012.63 1012.40 1012.15 1011.88 1011.63 1011.45 1011.36 1011.38 1011.49 1011.66 1011.84 1011.98 1012.04 1011.99 1011.82 1011.58 1011.28 1011.00 1010.75 1010.57
1014.11 1014.69 1015.02 1015.16 1015.23 1015.32 1015.51 1015.84 1016.29 1016.79 1017.24 1017.56 1017.65 1017.49 1017.08 1016.46 1015.73 1014.99 1014.33 1013.79 1013.41 1013.16 1013.01 1012.89 1012.77 1012.60 1012.39 1012.16 1011.95 1011.81 1011.76 1011.83 1011.99 1012.21 1012.43 1012.59 1012.66 1012.59 1012.40 1012.11 1011.77 1011.44 1011.16 1010.96
1014.11 1014.49 1014.65 1014.70 1014.74 1014.89 1015.21 1015.72 1016.37 1017.07 1017.68 1018.10 1018.23 1018.04 1017.54 1016.80 1015.94 1015.07 1014.29 1013.69 1013.27 1013.03 1012.92 1012.86 1012.80 1012.70 1012.56 1012.39 1012.23 1012.13 1012.13 1012.24 1012.45 1012.70 1012.96 1013.14 1013.22 1013.15 1012.95 1012.64 1012.28 1011.92 1011.62 1011.39
1013.65 1013.84 1013.88 1013.89 1014.00 1014.29 1014.82 1015.57 1016.47 1017.37 1018.15 1018.66 1018.81 1018.56 1017.96 1017.07 1016.06 1015.05 1014.16 1013.47 1013.02 1012.78 1012.69 1012.69 1012.70 1012.68 1012.60 1012.50 1012.39 1012.34 1012.39 1012.53 1012.77 1013.06 1013.34 1013.55 1013.65 1013.60 1013.41 1013.11 1012.75 1012.39 1012.07 1011.83
1012.93 1012.95 1012.92 1012.96 1013.19 1013.68 1014.46 1015.49 1016.63 1017.75 1018.66 1019.23 1019.36 1019.04 1018.30 1017.26 1016.09 1014.93 1013.93 1013.16 1012.67 1012.42 1012.36 1012.41 1012.48 1012.53 1012.52 1012.47 1012.42 1012.41 1012.48 1012.66 1012.92 1013.23 1013.54 1013.78 1013.90 1013.89 1013.73 1013.47 1013.13 1012.79 1012.49 1012.24
1012.16 1012.06 1012.00 1012.12 1012.51 1013.23 1014.27 1015.55 1016.91 1018.19 1019.19 1019.77 1019.85 1019.41 1018.53 1017.34 1016.02 1014.73 1013.63 1012.79 1012.27 1012.02 1011.99 1012.08 1012.20 1012.29 1012.34 1012.33 1012.32 1012.34 1012.43 1012.62 1012.90 1013.22 1013.55 1013.82 1013.98 1014.01 1013.91 1013.70 1013.41 1013.11 1012.83 1012.59
1011.55 1011.36 1011.32 1011.54 1012.10 1013.04 1014.30 1015.77 1017.28 1018.64 1019.66 1020.19 1020.17 1019.61 1018.59 1017.27 1015.82 1014.45 1013.28 1012.41 1011.88 1011.64 1011.64 1011.76 1011.92 1012.05 1012.13 1012.15 1012.16 1012.20 1012.30 1012.49 1012.77 1013.10 1013.44 1013.73 1013.93 1014.01 1013.97 1013.82 1013.60 1013.34 1013.10 1012.88
1011.20 1010.98 1010.98 1011.30 1012.01 1013.11 1014.51 1016.10 1017.66 1019.01 1019.97 1020.40 1020.25 1019.55 1018.42 1016.99 1015.49 1014.08 1012.90 1012.05 1011.54 1011.34 1011.36 1011.51 1011.70 1011.86 1011.96 1012.01 1012.03 1012.07 1012.17 1012.36 1012.63 1012.96 1013.30 1013.61 1013.84 1013.96 1013.97 1013.88 1013.72 1013.52 1013.31 1013.12
1011.12 1010.91 1010.97 1011.38 1012.20 1013.38 1014.84 1016.43 1017.94 1019.19 1020.00 1020.28 1019.99 1019.18 1017.96 1016.50 1015.00 1013.62 1012.51 1011.72 1011.28 1011.13 1011.20 1011.38 1011.59 1011.77 1011.88 1011.94 1011.97 1012.02 1012.13 1012.31 1012.57 1012.89 1013.23 1013.54 1013.78 1013.93 1013.98 1013.93 1013.82 1013.67 1013.50 1013.33
1011.23 1011.06 1011.19 1011.67 1012.54 1013.73 1015.15 1016.64 1018.00 1019.06 1019.69 1019.79 1019.35 1018.45 1017.20 1015.77 1014.35 1013.08 1012.09 1011.42 1011.07 1011.00 1011.12 1011.34 1011.57 1011.76 1011.89 1011.97 1012.02 1012.08 1012.20 1012.39 1012.65 1012.96 1013.29 1013.59 1013.82 1013.98 1014.04 1014.02 1013.93 1013.81 1013.66 1013.52
1011.41 1011.32 1011.51 1012.04 1012.91 1014.05 1015.35 1016.66 1017.80 1018.63 1019.03 1018.94 1018.38 1017.43 1016.20 1014.86 1013.57 1012.47 1011.64 1011.12 1010.89 1010.91 1011.08 1011.33 1011.58 1011.79 1011.94 1012.03 1012.11 1012.21 1012.36 1012.57 1012.84 1013.15 1013.47 1013.75 1013.97 1014.11 1014.16 1014.13 1014.05 1013.94 1013.81 1013.67
1011.59 1011.58 1011.84 1012.40 1013.23 1014.26 1015.39 1016.48 1017.36 1017.93 1018.10 1017.84 1017.18 1016.21 1015.05 1013.84 1012.72 1011.80 1011.16 1010.79 1010.68 1010.78 1011.00 1011.27 1011.54 1011.76 1011.93 1012.06 1012.19 1012.34 1012.54 1012.79 1013.09 1013.41 1013.72 1013.98 1014.17 1014.28 1014.30 1014.26 1014.16 1014.04 1013.91 1013.78
1011.73 1011.82 1012.14 1012.70 1013.47 1014.37 1015.31 1016.15 1016.77 1017.08 1017.03 1016.62 1015.89 1014.93 1013.85 1012.79 1011.85 1011.12 1010.65 1010.42 1010.41 1010.56 1010.81 1011.09 1011.35 1011.58 1011.78 1011.96 1012.15 1012.37 1012.64 1012.95 1013.29 1013.63 1013.94 1014.18 1014.35 1014.42 1014.41 1014.33 1014.22 1014.08 1013.94 1013.80
1011.89 1012.08 1012.45 1013.00 1013.70 1014.45 1015.18 1015.78 1016.15 1016.22 1015.98 1015.44 1014.66 1013.72 1012.74 1011.82 1011.05 1010.47 1010.13 1010.00 1010.05 1010.22 1010.46 1010.72 1010.98 1011.21 1011.44 1011.67 1011.93 1012.24 1012.59 1012.97 1013.37 1013.74 1014.05 1014.29 1014.43 1014.47 1014.42 1014.32 1014.18 1014.03 1013.88 1013.74
1012.17 1012.44 1012.85 1013.37 1013.98 1014.58 1015.11 1015.48 1015.62 1015.48 1015.08 1014.44 1013.62 1012.72 1011.81 1011.01 1010.35 1009.90 1009.64 1009.56 1009.62 1009.77 1009.98 1010.21 1010.44 1010.67 1010.92 1011.20 1011.54 1011.93 1012.36 1012.82 1013.27 1013.68 1014.01 1014.24 1014.36 1014.38 1014.32 1014.20 1014.05 1013.90 1013.75 1013.62
1012.67 1012.99 1013.41 1013.89 1014.38 1014.84 1015.18 1015.33 1015.26 1014.95 1014.41 1013.69 1012.84 1011.96 1011.12 1010.39 1009.82 1009.42 1009.20 1009.12 1009.16 1009.27 1009.42 1009.60 1009.80 1010.03 1010.30 1010.63 1011.03 1011.49 1012.00 1012.52 1013.03 1013.46 1013.81 1014.05 1014.17 1014.18 1014.11 1013.99 1013.85 1013.71 1013.58 1013.47
1013.44 1013.78 1014.17 1014.57 1014.94 1015.23 1015.39 1015.35 1015.10 1014.64 1013.99 1013.20 1012.33 1011.46 1010.66 1009.98 1009.45 1009.08 1008.85 1008.75 1008.74 1008.80 1008.89 1009.02 1009.19 1009.41 1009.70 1010.07 1010.52 1011.04 1011.60 1012.17 1012.71 1013.16 1013.52 1013.76 1013.88 1013.90 1013.85 1013.75 1013.63 1013.52 1013.42 1013.34
1014.43 1014.75 1015.07 1015.36 1015.59 1015.71 1015.69 1015.48 1015.07 1014.48 1013.74 1012.90 1012.02 1011.17 1010.39 1009.74 1009.23 1008.86 1008.62 1008.49 1008.44 1008.45 1008.50 1008.59 1008.75 1008.97 1009.27 1009.67 1010.15 1010.70 1011.29 1011.87 1012.41 1012.87 1013.23 1013.46 1013.59 1013.62 1013.59 1013.52 1013.45 1013.38 1013.32 1013.28
1015.51 1015.76 1015.98 1016.13 1016.20 1016.15 1015.96 1015.59 1015.06 1014.37 1013.57 1012.70 1011.82 1010.98 1010.23 1009.61 1009.12 1008.76 1008.51 1008.36 1008.29 1008.27 1008.30 1008.39 1008.55 1008.78 1009.10 1009.52 1010.01 1010.57 1011.15 1011.72 1012.24 1012.67 1013.00 1013.23 1013.35 1013.39 1013.39 1013.35 1013.32 1013.30 1013.29 1013.29
1016.48 1016.64 1016.73 1016.73 1016.64 1016.42 1016.07 1015.58 1014.94 1014.19 1013.36 1012.49 1011.63 1010.83 1010.12 1009.53 1009.07 1008.74 1008.51 1008.37 1008.30 1008.29 1008.34 1008.44 1008.62 1008.88 1009.22 1009.64 1010.13 1010.66 1011.21 1011.74 1012.21 1012.59 1012.89 1013.08 1013.19 1013.24 1013.24 1013.24 1013.25 1013.26 1013.30 1013.33
1017.15 1017.20 1017.16 1017.01 1016.77 1016.41 1015.94 1015.35 1014.65 1013.88 1013.05 1012.21 1011.40 1010.66 1010.01 1009.48 1009.07 1008.77 1008.58 1008.47 1008.44 1008.47 1008.56 1008.70 1008.91 1009.19 1009.55 1009.97 1010.43 1010.93 1011.42 1011.89 1012.29 1012.61 1012.85 1013.00 1013.09 1013.13 1013.14 1013.15 1013.18 1013.22 1013.28 1013.34
1017.39 1017.34 1017.17 1016.90 1016.53 1016.07 1015.51 1014.88 1014.17 1013.41 1012.63 1011.85 1011.12 1010.45 1009.88 1009.42 1009.08 1008.84 1008.70 1008.64 1008.66 1008.74 1008.87 1009.06 1009.31 1009.61 1009.97 1010.37 1010.81 1011.25 1011.68 1012.06 1012.39 1012.65 1012.82 1012.93 1012.99 1013.00 1013.01 1013.02 1013.05 1013.10 1013.17 1013.24
1017.16 1017.01 1016.75 1016.38 1015.94 1015.42 1014.85 1014.21 1013.54 1012.84 1012.14 1011.46 1010.82 1010.25 1009.76 1009.38 1009.10 1008.92 1008.83 1008.82 1008.88 1009.00 1009.18 1009.40 1009.67 1009.98 1010.33 1010.71 1011.09 1011.48 1011.83 1012.15 1012.40 1012.60 1012.72 1012.79 1012.81 1012.81 1012.80 1012.80 1012.82 1012.86 1012.91 1012.97
1016.54 1016.32 1015.99 1015.58 1015.10 1014.59 1014.04 1013.46 1012.87 1012.27 1011.67 1011.10 1010.57 1010.10 1009.69 1009.38 1009.15 1009.01 1008.95 1008.97 1009.05 1009.19 1009.38 1009.61 1009.87 1010.17 1010.49 1010.82 1011.15 1011.47 1011.77 1012.02 1012.23 1012.38 1012.47 1012.51 1012.52 1012.51 1012.48 1012.46 1012.46 1012.47 1012.50 1012.53
1015.68 1015.41 1015.05 1014.64 1014.19 1013.72 1013.24 1012.75 1012.27 1011.79 1011.31 1010.86 1010.43 1010.05 1009.71 1009.44 1009.25 1009.12 1009.06 1009.07 1009.14 1009.26 1009.42 1009.62 1009.84 1010.09 1010.35 1010.63 1010.90 1011.17 1011.41 1011.63 1011.80 1011.94 1012.03 1012.08 1012.09 1012.08 1012.06 1012.02 1012.00 1011.98 1011.97 1011.97
Thickness
5832 5814 5803 5810 5816 5816 5814 5807 5803 5813 5830 5820 5809 5806 5812 5818 5816 5812 5810 5808 5806 5806 5808 5808 5806 5805 5802 5798 5795 5792 5789 5788 5786 5782 5779 5777 5775 5775 5776 5776 5775 5774 5773 5771
5809 5804 5824 5832 5830 5823 5817 5807 5805 5816 5830 5820 5806 5806 5815 5818 5817 5819 5815 5811 5809 5806 5804 5805 5805 5804 5801 5798 5795 5793 5790 5789 5787 5785 5782 5780 5778 5776 5776 5776 5775 5774 5773 5771
5801 5816 5837 5832 5825 5818 5814 5809 5809 5809 5819 5818 5804 5792 5801 5813 5820 5822 5821 5818 5816 5811 5806 5805 5804 5803 5802 5799 5797 5796 5792 5790 5789 5787 5784 5781 5778 5776 5774 5773 5773 5774 5773 5771
5810 5828 5831 5825 5821 5820 5805 5828 5826 5818 5800 5786 5795 5765 5787 5800 5807 5812 5815 5816 5815 5815 5811 5808 5806 5803 5802 5801 5800 5797 5794 5792 5790 5788 5784 5779 5775 5771 5772 5773 5773 5773 5773 5771
5808 5825 5823 5817 5823 5828 5820 5835 5827 5816 5798 5785 5787 5769 5777 5795 5794 5803 5811 5816 5817 5817 5815 5812 5810 5808 5806 5804 5802 5799 5795 5792 5791 5789 5785 5781 5777 5775 5774 5774 5772 5772 5772 5771
5818 5833 5830 5828 5835 5838 5835 5824 5813 5799 5782 5762 5778 5770 5771 5788 5799 5806 5812 5818 5819 5818 5816 5814 5813 5810 5806 5805 5802 5799 5795 5792 5791 5789 5786 5782 5779 5776 5773 5772 5771 5770 5770 5769
5802 5817 5831 5837 5821 5826 5821 5791 5764 5758 5748 5752 5779 5774 5777 5806 5816 5818 5818 5820 5821 5820 5816 5812 5810 5807 5805 5803 5802 5799 5796 5792 5791 5789 5786 5784 5781 5778 5774 5772 5771 5769 5767 5767
5778 5783 5817 5829 5821 5810 5810 5792 5759 5745 5739 5750 5770 5767 5788 5817 5824 5828 5828 5825 5822 5820 5818 5815 5813 5811 5808 5806 5803 5799 5796 5793 5791 5789 5786 5785 5783 5779 5776 5774 5772 5769 5768 5767
5779 5785 5823 5834 5836 5824 5805 5793 5790 5764 5755 5745 5754 5771 5794 5815 5816 5819 5820 5819 5817 5817 5817 5815 5814 5812 5810 5807 5804 5801 5796 5792 5790 5789 5787 5784 5782 5780 5777 5775 5773 5770 5768 5767
5798 5788 5808 5826 5830 5825 5816 5804 5779 5761 5741 5733 5747 5758 5766 5789 5798 5806 5809 5811 5814 5816 5815 5814 5813 5812 5811 5809 5806 5802 5798 5794 5791 5789 5786 5784 5781 5779 5776 5774 5771 5769 5767 5765
5804 5785 5791 5803 5802 5799 5803 5796 5779 5760 5754 5736 5730 5750 5794 5795 5800 5802 5806 5810 5812 5813 5814 5813 5812 5811 5810 5807 5804 5800 5796 5792 5789 5787 5784 5781 5779 5777 5774 5772 5770 5768 5766 5763
5801 5780 5770 5787 5809 5819 5808 5796 5781 5760 5752 5747 5738 5752 5806 5805 5806 5806 5805 5808 5811 5812 5812 5811 5809 5807 5804 5802 5801 5798 5794 5790 5788 5785 5781 5778 5776 5774 5771 5769 5767 5765 5763 5761
5799 5774 5754 5760 5778 5798 5797 5798 5789 5773 5757 5745 5738 5755 5799 5801 5801 5803 5804 5805 5806 5806 5806 5805 5803 5801 5799 5797 5796 5794 5791 5788 5785 5782 5777 5773 5771 5770 5768 5766 5764 5762 5760 5757
5805 5771 5759 5751 5762 5780 5784 5792 5792 5775 5753 5748 5753 5762 5781 5789 5791 5796 5799 5801 5801 5801 5800 5798 5796 5795 5795 5794 5792 5789 5787 5785 5782 5778 5773 5769 5768 5767 5765 5763 5761 5758 5756 5753
5792 5769 5774 5777 5786 5789 5787 5788 5789 5781 5771 5760 5763 5767 5778 5787 5791 5794 5796 5797 5796 5794 5793 5793 5792 5791 5790 5789 5786 5784 5782 5781 5778 5773 5770 5767 5766 5764 5762 5759 5756 5754 5751 5749
5778 5766 5768 5770 5784 5785 5780 5786 5787 5784 5780 5773 5770 5769 5787 5791 5793 5792 5793 5793 5789 5788 5789 5789 5789 5788 5786 5784 5782 5779 5777 5776 5773 5769 5766 5764 5761 5759 5756 5754 5751 5748 5746 5744
5764 5759 5750 5747 5767 5771 5757 5775 5779 5777 5778 5774 5764 5772 5784 5783 5786 5786 5788 5787 5785 5786 5786 5785 5785 5785 5784 5782 5779 5775 5773 5770 5767 5764 5761 5759 5756 5753 5751 5749 5745 5743 5740 5738
5760 5750 5738 5737 5745 5733 5755 5787 5787 5777 5775 5779 5776 5779 5782 5783 5785 5787 5787 5785 5782 5783 5782 5782 5782 5781 5781 5779 5776 5773 5769 5765 5762 5758 5756 5754 5751 5748 5745 5742 5740 5738 5736 5733
5766 5751 5734 5724 5724 5734 5760 5777 5778 5766 5759 5773 5771 5774 5778 5779 5777 5774 5782 5783 5782 5781 5780 5779 5779 5778 5776 5774 5771 5767 5763 5759 5755 5752 5750 5748 5745 5742 5739 5736 5734 5732 5730 5727
5756 5749 5732 5722 5720 5719 5746 5774 5785 5771 5746 5767 5769 5766 5768 5768 5751 5758 5775 5777 5776 5777 5776 5775 5774 5772 5768 5767 5765 5759 5755 5751 5749 5747 5745 5743 5740 5736 5734 5731 5729 5727 5724 5721
5731 5727 5721 5716 5714 5725 5753 5771 5774 5740 5737 5760 5763 5763 5763 5757 5756 5763 5769 5770 5769 5769 5770 5769 5767 5763 5760 5760 5757 5751 5748 5745 5744 5743 5740 5737 5734 5731 5728 5726 5724 5721 5717 5714
5717 5712 5710 5707 5704 5714 5751 5757 5745 5742 5753 5757 5757 5758 5758 5758 5760 5761 5760 5760 5761 5760 5761 5760 5757 5754 5753 5752 5747 5742 5739 5739 5738 5735 5732 5729 5727 5725 5723 5719 5716 5713 5709 5705
5716 5717 5713 5712 5713 5732 5746 5747 5750 5751 5749 5751 5751 5753 5753 5751 5750 5751 5750 5750 5751 5751 5751 5751 5747 5744 5742 5741 5738 5732 5731 5731 5729 5726 5723 5720 5718 5715 5714 5710 5706 5703 5700 5696
5716 5723 5714 5711 5719 5730 5736 5741 5745 5747 5746 5748 5749 5748 5747 5743 5742 5742 5741 5741 5741 5741 5741 5740 5737 5732 5729 5728 5727 5725 5724 5722 5719 5715 5713 5710 5707 5705 5703 5700 5697 5693 5690 5687
5710 5712 5705 5703 5713 5720 5726 5731 5736 5739 5741 5742 5743 5742 5740 5738 5735 5735 5733 5733 5732 5732 5731 5729 5725 5721 5719 5718 5717 5716 5715 5713 5709 5706 5703 5701 5698 5695 5693 5691 5689 5687 5685 5683
5704 5704 5698 5695 5707 5707 5712 5724 5731 5731 5731 5732 5732 5731 5731 5731 5728 5727 5725 5724 5723 5722 5721 5718 5715 5713 5711 5710 5707 5707 5706 5703 5700 5696 5694 5691 5688 5686 5684 5681 5679 5679 5677 5676